Topeka, KS

1:52 PM CDT on October 14, 2019 (GMT -0500)
Billard Municipal

Weather History for KTOP - August, 2019

Change the Weather History Date:

Saturday, August 24, 2019

  Actual Average Record
Temperature  
Mean Temperature 71 °F 76 °F  
Max Temperature 74 °F 88 °F 110 °F (1936)
Min Temperature 68 °F 65 °F 40 °F (1891)
Degree Days  
Heating Degree Days 0 0  
Month to date heating degree days 0 0  
Since 1 June heating degree days 0 8  
Since 1 July heating degree days 0 0  
Cooling Degree Days 6 11  
Month to date cooling degree days 320 313  
Year to date cooling degree days 1199 1155  
Since 1 June cooling degree days 1087 1029  
Growing Degree Days 20 (Base 50)    
Moisture  
Dew Point 64 °F    
Average Humidity 80    
Maximum Humidity 87    
Minimum Humidity 73    
Precipitation  
Precipitation 0.01 in 0.14 in 2.72 in (1962)
Month to date precipitation 8.01 3.28  
Year to date precipitation 36.87 25.61  
Snow  
Snow 0.00 in 0.00 in 0.00 in ()
Month to date snowfall T 0.0  
Year to date snowfall 18.5 11.3  
Since 1 July snowfall T 0.0  
Snow Depth 0.00 in    
Sea Level Pressure  
Sea Level Pressure 30.04 in    
Wind  
Wind Speed 9 mph (East)    
Max Wind Speed 15 mph    
Max Gust Speed 21 mph    
Visibility 9 miles    
Events Rain    
T = Trace of Precipitation, MM = Missing Value Source: NWS Daily Summary

Daily Weather History Graph

Daily Weather History Graph

Search for Another Location

Airport or City:

Astronomy

Aug. 24, 2019 Rise Set
Actual Time 6:43 AM CDT 8:05 PM CDT
Civil Twilight 6:15 AM CDT 8:33 PM CDT
Nautical Twilight 5:42 AM CDT 9:06 PM CDT
Astronomical Twilight 5:07 AM CDT 9:41 PM CDT
Moon 12:38 AM CDT (8/24) 3:20 PM CDT (8/24)
Length of Visible Light 14h 17m
Length of Day
13h 21m
Last Quarter, 39% of the Moon is Illuminated
Aug 24
Last Quarter
Aug 30
New
Sep 5
First Quarter
Sep 13
Full
Sep 21
Last Quarter

Hourly Weather History & Observations

Time (CDT) Temp. Dew Point Humidity Pressure Visibility Wind Dir Wind Speed Gust Speed Precip Events Conditions
12:53 AM 72.0 °F 64.9 °F 78% 30.05 in 10.0 mi East 5.8 mph - N/A   Clear
1:53 AM 71.1 °F 64.9 °F 81% 30.05 in 10.0 mi East 8.1 mph - N/A   Partly Cloudy
2:53 AM 71.1 °F 64.9 °F 81% 30.04 in 10.0 mi East 8.1 mph - N/A   Clear
3:53 AM 70.0 °F 64.0 °F 81% 30.04 in 10.0 mi East 8.1 mph - N/A   Partly Cloudy
4:53 AM 70.0 °F 64.0 °F 81% 30.05 in 10.0 mi East 6.9 mph - N/A   Overcast
5:53 AM 69.1 °F 64.0 °F 84% 30.05 in 10.0 mi East 9.2 mph - N/A   Overcast
6:40 AM 69.1 °F 64.9 °F 87% 30.07 in 10.0 mi East 6.9 mph - N/A   Overcast
6:53 AM 69.1 °F 64.9 °F 87% 30.05 in 10.0 mi East 10.4 mph - N/A   Overcast
7:20 AM 69.1 °F 64.9 °F 87% 30.08 in 10.0 mi East 8.1 mph - N/A   Overcast
7:53 AM 68.0 °F 64.9 °F 90% 30.06 in 8.0 mi East 12.7 mph - N/A   Overcast
8:53 AM 68.0 °F 64.0 °F 87% 30.06 in 10.0 mi East 11.5 mph - 0.00 in   Overcast
9:53 AM 70.0 °F 64.9 °F 84% 30.06 in 10.0 mi East 10.4 mph - N/A   Overcast
10:11 AM 70.0 °F 64.0 °F 81% 30.08 in 10.0 mi East 10.4 mph - N/A   Overcast
10:43 AM 69.1 °F 64.0 °F 84% 30.08 in 9.0 mi ESE 11.5 mph - N/A   Overcast
10:53 AM 69.1 °F 66.0 °F 90% 30.06 in 2.0 mi East 9.2 mph - 0.00 in Rain Light Rain
11:06 AM 69.1 °F 66.0 °F 90% 30.07 in 3.0 mi East 9.2 mph - 0.01 in Rain Light Rain
11:40 AM 70.0 °F 66.0 °F 87% 30.07 in 5.0 mi ESE 13.8 mph - 0.01 in   Overcast
11:53 AM 70.0 °F 66.0 °F 87% 30.05 in 9.0 mi ESE 8.1 mph - 0.01 in   Overcast
12:14 PM 70.0 °F 66.0 °F 87% 30.06 in 10.0 mi ESE 9.2 mph - N/A   Overcast
12:53 PM 71.1 °F 66.0 °F 84% 30.03 in 10.0 mi East 9.2 mph - N/A   Overcast
1:25 PM 71.1 °F 66.0 °F 84% 30.04 in 10.0 mi ESE 8.1 mph - N/A   Overcast
1:53 PM 71.1 °F 66.0 °F 84% 30.02 in 10.0 mi East 10.4 mph - N/A   Overcast
2:53 PM 72.0 °F 64.9 °F 78% 30.01 in 10.0 mi East 11.5 mph - N/A   Overcast
3:53 PM 73.0 °F 66.0 °F 79% 30.00 in 10.0 mi ESE 8.1 mph - N/A   Overcast
4:53 PM 73.0 °F 64.9 °F 76% 30.00 in 10.0 mi East 6.9 mph - N/A   Overcast
5:53 PM 73.0 °F 64.9 °F 76% 30.00 in 10.0 mi East 10.4 mph - N/A   Overcast
6:53 PM 72.0 °F 64.0 °F 76% 30.00 in 10.0 mi East 10.4 mph - N/A   Overcast
7:53 PM 71.1 °F 62.1 °F 73% 30.00 in 10.0 mi ESE 8.1 mph - N/A   Overcast
8:53 PM 70.0 °F 62.1 °F 76% 30.01 in 10.0 mi ESE 8.1 mph - N/A   Overcast
9:53 PM 68.0 °F 61.0 °F 78% 30.00 in 10.0 mi East 8.1 mph - N/A   Mostly Cloudy
10:22 PM 68.0 °F 61.0 °F 78% 30.03 in 10.0 mi SE 4.6 mph - N/A   Mostly Cloudy
10:53 PM 69.1 °F 62.1 °F 78% 30.00 in 10.0 mi ESE 4.6 mph - N/A   Overcast
11:53 PM 69.1 °F 62.1 °F 78% 29.99 in 10.0 mi East 5.8 mph - N/A   Overcast